Lapse_Rate
8.4 8.3 8.4 8.2 8.1 8.1 8.1 7.9 7.6 7.1 6.8 6.8 6.9 6.8 6.8 6.5 6.4 6.3 6.2 6.2 6.5 6.4
8.7 8.6 8.5 8.6 8.3 8.0 7.9 7.9 7.5 7.2 7.2 7.0 6.8 6.7 6.2 6.1 6.2 6.3 6.3 6.1 6.2 6.2
8.5 8.7 8.7 8.6 8.3 8.1 8.0 7.5 7.3 7.2 7.0 7.1 6.9 6.4 6.2 6.5 6.3 6.6 6.5 6.3 6.3 6.3
8.3 8.4 8.7 8.1 8.3 8.1 8.1 7.2 7.1 6.9 6.9 7.1 6.7 6.3 6.4 6.0 6.2 6.5 6.4 6.3 6.2 6.1
8.2 7.8 7.2 6.8 6.7 6.8 7.1 6.8 6.6 6.5 6.7 6.6 6.0 5.8 6.3 6.4 6.2 5.9 6.4 6.4 6.2 5.9
8.0 7.6 6.9 7.0 6.6 5.5 6.2 6.4 6.6 6.8 6.7 6.1 5.9 6.0 6.3 6.2 6.3 6.1 5.9 5.9 5.8 5.5
7.4 7.0 6.8 6.4 6.1 5.8 6.0 6.4 6.2 6.3 6.0 5.9 6.0 5.8 5.8 5.8 6.1 5.9 5.9 5.5 5.6 5.8
7.1 6.9 6.7 6.0 6.0 5.8 5.6 5.7 5.6 5.8 6.0 5.9 6.0 5.9 5.8 5.8 5.8 5.7 5.8 5.8 5.6 5.4
5.9 6.8 6.5 6.6 5.2 5.7 5.9 5.6 5.9 5.9 5.8 6.2 6.1 5.8 5.7 5.5 5.6 5.6 5.5 5.5 5.4 5.5
6.2 4.9 6.0 5.3 5.9 6.1 5.9 5.7 6.2 6.1 5.7 5.9 5.9 5.8 5.9 5.7 5.6 5.6 5.7 5.6 5.6 5.5
5.8 5.7 6.3 5.7 5.7 5.7 5.7 5.8 5.9 6.1 6.0 5.9 5.9 5.8 5.7 5.7 5.6 5.6 5.6 5.4 5.3 5.2
5.8 5.4 5.4 5.9 5.8 5.6 5.4 5.7 5.7 5.7 5.8 5.6 5.4 5.5 5.5 5.6 5.5 5.6 5.4 5.3 5.0 5.2
5.5 5.7 5.6 5.7 5.3 5.6 6.0 5.0 5.1 5.1 5.1 5.3 5.5 5.8 5.9 6.0 6.1 6.0 5.8 5.2 5.3 5.7
5.3 5.2 5.2 5.4 5.6 5.3 5.4 5.9 5.8 5.8 5.5 5.5 5.7 5.8 6.1 6.2 6.5 6.7 6.6 6.3 5.9 5.8
Wind_Speed
27 18 17 20 16 16 16 16 18 19 18 18 18 17 17 14 14 15 14 17 12 7
23 23 21 22 19 15 14 13 16 18 18 16 17 18 18 13 16 15 15 13 12 9
20 20 16 13 16 17 14 14 14 18 16 16 17 17 18 14 14 13 10 8 11 9
14 12 10 11 12 14 13 14 15 17 16 16 16 15 14 13 12 14 12 11 12 11
12 13 13 15 15 15 16 14 16 16 16 15 14 14 16 13 13 15 15 12 12 14
11 13 15 13 14 18 16 15 14 15 15 15 15 15 13 13 14 13 14 15 15 15
10 11 12 13 15 15 15 16 14 14 13 13 13 13 14 13 12 12 13 15 15 16
2 7 11 10 9 13 13 13 13 13 11 11 11 10 13 13 13 13 11 11 11 12
9 6 7 7 13 12 10 11 13 12 12 12 8 15 17 15 11 11 12 10 8 9
12 7 11 8 8 8 12 11 10 11 12 10 8 18 17 16 10 10 9 10 10 8
9 11 9 12 10 9 6 9 8 9 9 9 7 17 17 15 9 7 9 10 12 12
4 8 10 10 13 8 6 7 7 7 9 8 7 14 16 14 9 7 7 6 8 9
6 3 7 8 7 2 10 9 7 8 7 10 8 14 17 12 7 8 6 6 7 15
7 5 6 5 8 7 4 4 8 9 6 7 8 10 16 13 8 7 7 7 6 6
Wind_Direction
205 203 202 198 195 192 192 191 182 187 187 184 184 178 181 184 187 187 191 187 186 175
201 203 200 196 194 188 185 181 179 187 186 182 178 178 176 182 186 186 190 188 175 164
206 206 200 190 186 180 173 177 175 181 182 181 180 180 181 185 183 180 181 167 154 154
201 194 176 169 166 172 168 171 171 178 178 177 180 180 182 177 166 167 162 160 160 152
170 160 167 169 169 169 172 174 172 177 176 175 175 173 172 160 166 168 167 169 172 175
175 165 171 165 170 166 169 170 164 165 165 167 168 167 165 164 164 168 167 167 169 163
168 161 160 162 164 155 166 161 161 162 160 161 162 158 159 155 162 163 168 172 173 167
356 155 152 156 148 143 155 160 145 136 139 141 149 153 157 158 164 164 165 174 174 177
67 39 61 127 137 127 129 131 134 134 142 147 159 156 157 157 160 165 166 169 170 168
117 123 97 71 78 123 130 128 134 134 138 148 147 151 152 149 155 161 166 169 163 157
119 121 126 115 94 80 98 116 130 127 130 129 140 153 156 150 149 163 170 173 170 167
107 123 124 129 123 114 104 115 115 124 121 130 134 153 148 146 147 148 156 158 166 168
67 75 97 107 98 53 154 139 129 110 114 125 138 164 160 149 151 148 148 150 167 165
101 89 109 113 113 105 73 94 121 119 115 117 141 166 170 155 158 164 159 164 167 169